{"data":{"norad_id":55629,"intl_designator":"2023-021B","name":"STARLINK-5497","alt_names":[],"object_type":"PAYLOAD","status":"ACTIVE","operator":null,"country":"US","launch_date":"2023-02-17","launch_site_code":"AFWTR","launch_vehicle":null,"mission":null,"orbit_class":"UNKNOWN","rcs_meters":null,"size_class":null,"mass_kg":null,"dimensions":null,"purposes":["comms"],"wikipedia_slug":null,"has_3d_model":false,"image_url":null,"decayed_at":null,"tle_current":{"epoch":"2026-05-25T01:13:14.628864Z","epoch_age_seconds":67755,"freshness":"FRESH","line1":"1 55629U 23021B   26145.05086376  .00000701  00000+0  66529-4 0  9997","line2":"2 55629  69.9999  12.0360 0002743 269.3250  90.7595 14.98331282179738","mean_motion":14.98331282,"eccentricity":0.0002743,"inclination_deg":69.9999,"raan_deg":12.036,"arg_perigee_deg":269.325,"mean_anomaly_deg":90.7595,"bstar":6.6529e-5,"rev_number":17973,"period_min":96.106916894765,"perigee_km":570.14548964547,"apogee_km":573.95836329053,"semimajor_km":6950.188926468,"source":"CELESTRAK","updated_at":"2026-05-25T13:38:17.846600Z"}}}